[[{"header":{"parameterUnit":"m.s-1","parameterCategory":1,"la1":30.2991,"la2":30.254,"lo1":-89.0895,"lo2":-89.0444,"dy":0.0017,"dx":0.0017,"nx":28,"ny":28,"refTime":"2025-03-21T09:00:00:Z","depth":0,"parameterNumber":2,"parameterNumberName":"U-component_of_WINDS"},"data":[0,0,0,0,0,0,0,0,0,0,0,0,0,0,0,0,0,0,0,0,0,0,0,0,0,0,0,0,0,0,0,0,0,0,0,0,0,0,0,0,0,0,0,0,0,0,0,0,0,0,0,0,0,0,0,0,0,0,1.1005,1.1005,0,1.1017,1.1017,1.1017,1.1,1.0999,1.0999,1.0998,1.1009,1.101,1.1011,0,0,0,0,0,0,0,0,0,0,0,0,0,1.0963,1.0964,1.1005,1.1005,1.1005,1.1017,1.1017,1.1017,1.1,1.0999,1.0999,1.0998,1.1009,1.101,1.1011,0,0,0,0,0,0,0,0,0,0,0,0,0,1.0979,1.0964,1.1005,1.0998,1.0998,1.1017,1.1017,1.1017,1.1,1.0999,1.0998,1.0998,1.1009,1.101,1.1011,1.1038,0,0,1.1015,1.1016,0,0,0,0,0,0,0,0,1.0978,1.0981,1.0999,1.0999,1.0998,1.1006,1.1007,1.1024,1.1001,1.0999,1.0998,1.0997,1.1009,1.101,1.1014,1.1038,1.1039,1.1015,1.1016,1.1017,1.1017,0,0,0,0,0,0,0,1.0977,1.098,1.101,1.0999,1.0999,1.0993,1.0994,1.101,1.1009,1.0999,1.0998,1.1,1.1009,1.1013,1.1015,1.1039,1.1015,1.1017,1.1017,1.1018,1.1081,1.1082,0,0,0,0,0,0,1.0977,1.0979,1.1009,1.101,1.0986,1.0995,1.0996,1.1004,1.1009,1.1009,1.1001,1.0999,1.1011,1.1013,1.1015,1.1044,1.1017,1.1018,1.1019,1.108,1.1082,1.1082,0,0,0,0,0,0,1.0976,1.098,1.1009,1.0994,1.0997,1.0996,1.1006,1.1005,1.101,1.101,1.1009,1.1006,1.1011,1.1013,1.1031,1.1044,1.1019,1.102,1.1079,1.1081,1.1082,1.1103,0,0,0,0,0,0,1.0975,1.098,1.0991,1.0995,1.0998,1.1026,1.1007,1.1006,1.1012,1.101,1.1015,1.1014,1.101,1.103,1.1033,1.1045,1.1021,1.1078,1.108,1.1082,1.1101,1.1105,1.1108,0,0,0,0,0,1.0974,1.0997,1.0991,1.0995,1.1012,1.1027,1.1029,1.1024,1.1014,1.1024,1.1023,1.1014,1.1042,1.1032,1.1035,1.1048,1.1077,1.1079,1.1081,1.11,1.1104,1.1108,0,0,0,0,0,0,1.0995,1.0997,1.0991,1.1016,1.1022,1.1024,1.1037,1.103,1.1038,1.1036,1.1029,1.103,1.1049,1.1051,1.1039,1.1072,1.1058,1.1061,1.1071,1.1075,1.1078,1.1077,1.1022,0,0,0,0,0,1.1002,1.1015,1.1016,1.1038,1.1041,1.1038,1.1045,1.104,1.1045,1.1047,1.1048,1.1053,1.1062,1.1069,1.1078,1.1102,1.1101,1.1112,1.1115,1.1118,1.112,1.113,1.1134,1.1089,1.1089,1.1089,0,0,1.1018,1.1021,1.1029,1.1042,1.1046,1.1057,1.104,1.1054,1.1062,1.1049,1.1066,1.1067,1.1071,1.1092,1.1101,1.1094,1.1133,1.1121,1.1123,1.1124,1.1133,1.1137,1.1141,1.1091,1.109,1.109,0,0,1.1052,1.1056,1.1074,1.1077,1.1082,1.108,1.1084,1.1087,1.1087,1.1104,1.1094,1.1103,1.112,1.1123,1.1127,1.1159,1.115,1.1162,1.118,1.1189,1.1193,1.1196,1.1205,1.1209,1.1164,1.1164,1.1164,0,1.107,1.1089,1.1083,1.1097,1.1102,1.109,1.1106,1.111,1.1118,1.1121,1.1113,1.1132,1.1135,1.1154,1.1162,1.1166,1.1169,1.1161,1.1193,1.1196,1.1199,1.1207,1.1211,1.1166,1.1165,1.1165,1.1165,0,1.111,1.1122,1.1136,1.1143,1.1149,1.1164,1.116,1.1167,1.1161,1.116,1.1175,1.1178,1.1185,1.119,1.1185,1.1208,1.1203,1.1194,1.1179,1.1204,1.1212,1.1216,1.1167,1.1167,1.1167,1.1166,0,0,1.1158,1.1161,1.1165,1.1167,1.1171,1.118,1.1194,1.1201,1.1206,1.1212,1.1221,1.1235,1.1226,1.123,1.1225,1.1234,1.1256,1.1224,1.1223,1.1228,1.1278,1.1284,1.1288,1.1251,1.1251,1.1252,1.1277,0,1.119,1.1214,1.1208,1.1231,1.1241,1.1229,1.124,1.1243,1.1241,1.1249,1.1246,1.1255,1.1244,1.1246,1.1254,1.1252,1.1266,1.125,1.1258,1.1258,1.1256,1.1293,1.1299,1.1323,1.1281,1.1281,1.1282,0,1.1232,1.1237,1.1261,1.126,1.1264,1.1275,1.128,1.1288,1.129,1.1287,1.1291,1.1284,1.1295,1.1281,1.1295,1.1284,1.1287,1.1286,1.1287,1.1287,1.1271,1.1291,1.1331,1.1334,1.1287,1.1287,1.1286,0,1.1261,1.1275,1.129,1.1293,1.1293,1.13,1.1301,1.1302,1.1306,1.131,1.1312,1.1318,1.1321,1.1325,1.1318,1.1309,1.1333,1.1319,1.133,1.133,1.1335,1.1334,1.1374,1.1339,1.1339,1.1339,1.1339,0,1.1297,1.1311,1.1303,1.1313,1.1327,1.132,1.1335,1.1334,1.1334,1.1342,1.1332,1.134,1.1332,1.1338,1.1333,1.1344,1.1346,1.1343,1.1342,1.1343,1.1343,1.1344,1.1342,1.134,1.134,1.134,1.134,0,1.1333,1.1329,1.1344,1.1342,1.1342,1.1353,1.1351,1.1359,1.1356,1.1365,1.1367,1.1362,1.1368,1.1363,1.1369,1.1366,1.138,1.1377,1.1379,1.1378,1.1389,1.1387,1.1429,1.1433,1.1397,1.1398,1.1398,0,1.1355,1.1366,1.1365,1.1369,1.137,1.1377,1.1381,1.1374,1.1378,1.1379,1.1386,1.1391,1.1395,1.1406,1.1402,1.1406,1.1402,1.1416,1.1402,1.1403,1.1399,1.1398,1.1398,1.1418,1.1419,1.1419,1.142,0,1.1394,1.1391,1.1397,1.1401,1.1405,1.1409,1.1411,1.1415,1.1407,1.1412,1.1418,1.1421,1.1426,1.1431,1.1434,1.1433,1.1424,1.1424,1.1426,1.1428,1.1428,1.1426,1.1385,1.1423,1.1422,1.1422,1.1422,1.1422,1.1423,1.143,1.143,1.1436,1.1437,1.1439,1.1445,1.1442,1.1447,1.1451,1.1446,1.1453,1.1452,1.1455,1.1455,1.1459,1.1453,1.1457,1.1458,1.1459,1.1459,1.1428,1.146,1.146,1.146,1.146,1.146,0,1.146,1.1458,1.1464,1.1467,1.1471,1.1463,1.1464,1.1468,1.1474,1.1474,1.1478,1.1483,1.1487,1.1484,1.1486,1.149,1.1486,1.1491,1.149,1.149,1.1466,1.1462,1.1494,1.1494,1.1494,1.1494,1.1494,1.1494,1.1479,1.1491,1.1487,1.1498,1.1497,1.1503,1.1504,1.1505,1.1505,1.1512,1.1515,1.1512,1.151,1.1513,1.1515,1.1514,1.1515,1.1521,1.1518,1.1495,1.1492,1.1488,1.1485,1.1521,1.1521,1.1541,1.1541,1.1541]},{"header":{"parameterUnit":"m.s-1","parameterCategory":1,"la1":30.2991,"la2":30.254,"lo1":-89.0895,"lo2":-89.0444,"dy":0.0017,"dx":0.0017,"nx":28,"ny":28,"refTime":"2025-03-21T09:00:00:Z","depth":0,"parameterNumber":3,"parameterNumberName":"V-component_of_WINDS"},"data":[0,0,0,0,0,0,0,0,0,0,0,0,0,0,0,0,0,0,0,0,0,0,0,0,0,0,0,0,0,0,0,0,0,0,0,0,0,0,0,0,0,0,0,0,0,0,0,0,0,0,0,0,0,0,0,0,0,0,4.8897,4.8897,0,4.8925,4.8925,4.8925,4.8858,4.8856,4.8854,4.8852,4.8878,4.8881,4.8883,0,0,0,0,0,0,0,0,0,0,0,0,0,4.878,4.8783,4.8897,4.8897,4.8897,4.8925,4.8925,4.8926,4.8858,4.8856,4.8853,4.8851,4.8877,4.888,4.8884,0,0,0,0,0,0,0,0,0,0,0,0,0,4.8822,4.8783,4.8897,4.8867,4.8865,4.8925,4.8925,4.8926,4.8859,4.8856,4.8853,4.885,4.8876,4.888,4.8884,4.8973,0,0,4.8896,4.8898,0,0,0,0,0,0,0,0,4.882,4.8826,4.8871,4.8869,4.8867,4.8885,4.8894,4.8941,4.886,4.8861,4.8852,4.8848,4.8883,4.8886,4.8898,4.8974,4.8975,4.8897,4.8899,4.8901,4.8902,0,0,0,0,0,0,0,4.8817,4.8824,4.8908,4.8872,4.8869,4.8851,4.8854,4.8902,4.8889,4.8861,4.8856,4.886,4.8881,4.8895,4.8898,4.8976,4.8897,4.89,4.8903,4.8904,4.9121,4.9124,0,0,0,0,0,0,4.8818,4.8823,4.8907,4.8909,4.8835,4.8856,4.8859,4.8882,4.8889,4.8887,4.8863,4.8857,4.8889,4.8894,4.8899,4.9,4.8901,4.8905,4.8907,4.9118,4.9122,4.9126,0,0,0,0,0,0,4.8816,4.8826,4.8906,4.8864,4.8873,4.8861,4.8888,4.8884,4.8898,4.8891,4.8887,4.888,4.8887,4.8893,4.8954,4.9,4.8906,4.891,4.9114,4.9119,4.9124,4.9205,0,0,0,0,0,0,4.8813,4.8826,4.8861,4.8866,4.8876,4.8962,4.8891,4.8887,4.8905,4.8898,4.8905,4.8903,4.8885,4.8949,4.8958,4.9004,4.8913,4.911,4.9116,4.9122,4.9198,4.9212,4.9224,0,0,0,0,0,4.8809,4.8883,4.8863,4.8873,4.8919,4.8965,4.897,4.8948,4.891,4.8943,4.8938,4.8903,4.8994,4.8955,4.8966,4.9013,4.9107,4.9114,4.9122,4.9192,4.921,4.9224,0,0,0,0,0,0,4.8884,4.8883,4.8861,4.8939,4.8953,4.8953,4.8996,4.8968,4.8992,4.8984,4.8955,4.8957,4.9022,4.9024,4.8981,4.9098,4.9044,4.9054,4.9094,4.911,4.9123,4.912,4.8917,0,0,0,0,0,4.891,4.8948,4.8945,4.9014,4.9022,4.9008,4.9027,4.9009,4.9021,4.9026,4.9026,4.9038,4.9069,4.909,4.9118,4.9199,4.9198,4.9237,4.925,4.926,4.9269,4.9308,4.9324,4.915,4.915,4.915,0,0,4.8963,4.8967,4.8993,4.9029,4.9037,4.9076,4.9013,4.9057,4.9085,4.9033,4.9089,4.9089,4.9101,4.9171,4.9202,4.9175,4.9316,4.927,4.9279,4.9281,4.9317,4.9333,4.9348,4.9156,4.9155,4.9154,0,0,4.9079,4.9088,4.9144,4.9153,4.9166,4.9156,4.917,4.9175,4.9172,4.9229,4.919,4.9222,4.9277,4.9285,4.9297,4.9414,4.9382,4.9424,4.9492,4.953,4.9544,4.9556,4.9594,4.9608,4.9433,4.9433,4.9433,0,4.9143,4.92,4.9177,4.9222,4.9238,4.9193,4.9248,4.9258,4.928,4.9291,4.926,4.9326,4.9331,4.9401,4.9429,4.9442,4.9454,4.9422,4.9544,4.9556,4.9566,4.9602,4.9617,4.9438,4.9437,4.9437,4.9437,0,4.9276,4.9317,4.9361,4.9382,4.9403,4.9454,4.9435,4.9459,4.9439,4.9431,4.9487,4.9492,4.9519,4.9534,4.9515,4.9601,4.9583,4.9549,4.9493,4.9588,4.9621,4.9635,4.9445,4.9443,4.9442,4.9441,0,0,4.9441,4.9447,4.9463,4.947,4.948,4.951,4.9558,4.9584,4.9603,4.962,4.9656,4.9703,4.9671,4.9684,4.9666,4.97,4.9788,4.9661,4.9661,4.9682,4.9878,4.9902,4.9918,4.9767,4.977,4.9772,4.9876,0,4.9552,4.9634,4.9613,4.9693,4.9728,4.9684,4.9725,4.9735,4.9729,4.9756,4.9749,4.9781,4.9738,4.9745,4.9777,4.977,4.9826,4.9763,4.9799,4.9801,4.9794,4.9936,4.9962,5.006,4.9889,4.9892,4.9893,0,4.9694,4.9714,4.9798,4.9799,4.9813,4.985,4.987,4.9898,4.9907,4.99,4.9914,4.9888,4.9933,4.9879,4.9938,4.9895,4.9909,4.9908,4.9911,4.9911,4.9851,4.9937,5.0091,5.0104,4.9914,4.9913,4.9911,0,4.98,4.9849,4.9904,4.9913,4.9917,4.9943,4.9946,4.9952,4.9968,4.9986,4.9995,5.0019,5.0031,5.0049,5.0029,4.9992,5.009,5.0036,5.0083,5.0084,5.0104,5.0102,5.0258,5.0118,5.0118,5.0117,5.0117,0,4.9926,4.9978,4.9952,4.9986,5.0041,5.0016,5.0072,5.0069,5.0075,5.0106,5.0071,5.0101,5.0074,5.0101,5.0086,5.0135,5.0142,5.0135,5.013,5.0137,5.0137,5.0143,5.0135,5.0121,5.012,5.012,5.0119,0,5.0054,5.0039,5.0095,5.0094,5.0095,5.0136,5.0133,5.0163,5.0154,5.0194,5.0202,5.0187,5.0217,5.0199,5.023,5.0219,5.0283,5.027,5.028,5.0275,5.0322,5.0317,5.0485,5.0505,5.0355,5.0357,5.0358,0,5.0133,5.0172,5.0174,5.0192,5.0196,5.0227,5.0242,5.0218,5.0236,5.0248,5.0276,5.0303,5.0322,5.0371,5.0363,5.0385,5.037,5.0428,5.0373,5.0378,5.0367,5.0364,5.0366,5.0438,5.044,5.0441,5.0443,0,5.0275,5.0265,5.0289,5.031,5.033,5.0345,5.0358,5.0375,5.035,5.0372,5.0401,5.0416,5.0447,5.0472,5.0491,5.0492,5.0463,5.046,5.0472,5.0477,5.048,5.0476,5.0306,5.0456,5.0454,5.0453,5.0453,5.0452,5.0378,5.0409,5.0414,5.0441,5.0448,5.046,5.0487,5.0481,5.0505,5.0527,5.0512,5.0546,5.0552,5.0573,5.0578,5.0604,5.058,5.0598,5.0602,5.0606,5.0611,5.0478,5.0607,5.0607,5.0607,5.0606,5.0606,0,5.0515,5.0515,5.0541,5.0559,5.0579,5.0551,5.0562,5.0581,5.0612,5.0619,5.0639,5.0671,5.0696,5.0689,5.071,5.0732,5.0718,5.0738,5.0734,5.0734,5.0632,5.0618,5.0748,5.0748,5.0748,5.0748,5.0748,5.0748,5.0588,5.0637,5.0628,5.0679,5.0679,5.0712,5.0721,5.0731,5.0736,5.0774,5.0794,5.0789,5.079,5.0811,5.0831,5.0829,5.0837,5.086,5.0852,5.0756,5.0742,5.0729,5.0715,5.0863,5.0863,5.0952,5.0953,5.0954]}]]